Location: Newark
(43.4306°N, 0.3089°E)
Time: 20:28:02
(UTC+00:00)

Vanguard 3 - Pass Details

Date: 26 August 2019
Orbit: 508 x 3262 km, 33.3° (Epoch: 23 October)

Event Time Altitude Azimuth Distance (km) Brightness Sun altitude
Rises 20:21:43 0° 261° (W) 3,373 11.1 -16.9°
Reaches altitude 10° 20:26:11 10° 229° (SW) 2,022 9.4 -17.5°
Maximum altitude 20:27:41 12° 208° (SSW) 1,814 8.9 -17.8°
Enters shadow 20:28:48 11° 192° (SSW) 1,810 8.7 -17.9°
Drops below altitude 10° 20:29:04 10° 188° (S) 1,829 - -18.0°
Sets 20:32:30 0° 151° (SSE) 2,598 - -18.5°
